Theta_e
310 310 310 310 310 310 311 311 310 310 310 310 309 308 307 306 304 297 287 291 287 280 279 281 282 277 278 277 273 275 274 269 264 260 257 260 257 259 257 260 257 257 254 254 258 252 254 272 273 268 268 267 263 262
308 308 309 309 310 310 310 310 309 309 309 309 309 309 307 305 304 300 284 290 291 283 277 282 283 285 284 283 278 278 275 272 270 261 261 261 258 256 255 258 267 258 265 263 264 261 267 267 273 273 269 268 266 269
305 306 306 307 308 308 309 309 309 308 308 308 309 309 307 306 304 299 285 287 284 281 276 278 278 284 286 285 286 276 277 278 274 272 268 266 261 264 257 260 264 267 270 268 264 267 269 266 274 274 271 273 274 273
302 303 304 305 305 306 307 307 308 308 308 308 308 308 307 305 304 293 285 286 285 281 273 272 280 279 284 285 284 284 279 275 275 273 270 266 261 270 266 268 267 269 270 268 267 271 271 273 276 274 273 271 271 271
299 299 301 303 303 304 305 306 306 307 307 307 307 307 306 304 302 290 286 288 287 282 274 272 276 277 278 279 279 281 279 273 272 271 268 266 270 269 269 267 267 271 270 265 265 272 272 274 274 272 272 271 270 269
298 299 299 300 302 303 304 305 305 305 306 306 306 307 305 302 292 285 279 285 287 284 276 267 270 268 272 276 275 273 274 273 275 270 269 272 275 272 268 260 271 273 274 274 272 272 272 274 274 270 269 270 269 268
297 298 299 300 300 301 303 304 305 305 305 305 306 306 302 294 289 284 279 284 289 286 275 268 262 271 269 269 268 271 274 274 272 272 271 270 271 274 270 264 272 273 273 273 271 270 270 270 268 268 267 267 265 264
297 298 299 299 300 300 301 303 304 305 305 305 304 299 294 292 288 282 286 291 287 279 275 266 264 269 273 269 267 272 265 270 268 266 267 265 269 270 266 271 272 271 270 269 269 268 268 267 266 266 265 264 262 263
296 297 299 300 300 300 300 301 303 304 304 299 295 292 286 281 277 280 290 289 284 278 270 264 264 266 272 269 267 265 266 263 263 266 265 267 263 265 267 269 270 268 267 267 266 265 262 261 262 261 260 259 259 260
296 297 299 300 300 300 300 301 302 302 296 292 287 278 273 279 290 285 278 277 276 275 269 267 270 268 273 269 264 264 265 262 261 265 265 264 261 266 267 263 265 265 265 264 263 264 261 258 255 255 255 257 258 258
297 298 300 300 300 300 300 301 301 295 292 280 275 272 280 285 277 275 270 270 269 264 266 269 271 269 272 265 264 266 261 262 258 260 262 258 258 265 261 257 259 261 262 260 260 258 257 257 257 255 255 253 253 254
298 299 300 300 300 300 300 299 296 288 281 279 277 280 278 274 271 268 266 267 263 263 267 268 269 270 269 270 265 264 260 260 258 262 259 255 264 260 257 257 257 259 259 257 258 257 257 258 256 256 255 253 254 255
298 300 301 300 301 301 300 294 293 288 285 279 275 271 270 269 264 264 260 260 263 269 268 269 267 269 267 268 262 264 260 259 260 258 257 260 261 257 254 254 257 260 259 257 255 253 252 253 251 251 252 250 248 250
298 301 301 301 301 301 296 294 289 286 279 273 269 264 267 263 266 262 261 267 270 270 270 269 265 266 265 263 263 258 260 261 256 253 256 257 257 254 254 259 260 260 258 257 254 253 252 249 249 247 246 246 245 250
298 301 301 301 301 300 294 290 288 280 275 270 271 264 265 266 266 265 268 268 269 272 269 267 265 267 261 262 262 260 257 253 257 257 260 259 254 257 259 259 261 260 258 254 253 253 252 247 246 247 247 246 245 246
291 292 294 298 294 292 290 284 280 276 273 270 268 264 266 266 264 266 268 267 269 269 268 266 261 259 258 259 258 258 257 256 261 260 261 256 254 255 258 259 259 258 256 253 252 248 248 247 248 249 248 247 247 246
288 283 288 289 288 288 286 277 275 271 270 267 265 268 269 268 267 267 269 267 269 266 262 261 258 258 259 256 257 258 259 260 262 263 261 255 255 254 256 258 259 258 255 252 247 247 247 246 244 247 250 249 248 250
282 285 288 288 283 281 275 275 273 270 265 267 266 266 267 268 268 266 265 266 266 263 260 259 262 256 257 254 255 260 260 261 261 259 259 254 252 253 255 256 256 256 255 253 247 247 245 247 248 249 247 248 250 250
284 285 287 286 281 276 271 270 271 263 264 265 266 266 264 262 263 263 262 261 258 259 262 258 255 254 257 257 257 256 254 256 257 259 257 255 255 255 257 257 257 256 255 251 247 248 248 247 250 249 249 250 250 251
288 286 284 284 281 273 269 268 272 267 265 264 266 264 261 260 259 257 256 256 257 258 258 256 257 257 259 258 256 256 254 253 253 251 253 255 255 255 258 257 257 254 251 248 247 249 248 250 249 250 250 251 250 252
282 282 282 276 271 268 264 264 264 264 264 262 262 263 259 258 256 253 254 254 257 254 256 256 254 251 246 247 247 249 251 252 252 254 254 253 255 255 257 256 253 252 251 248 248 248 248 249 250 250 250 253 254 252
277 281 275 276 268 266 263 262 263 263 262 260 260 260 258 255 252 251 253 254 252 255 251 249 247 245 246 249 248 246 247 246 246 250 252 253 253 254 253 254 253 254 249 249 247 247 248 249 250 250 251 253 251 250
280 277 273 271 264 262 259 260 259 258 260 258 257 255 252 251 250 253 250 249 251 245 243 244 244 242 245 244 244 245 245 247 249 248 248 249 248 249 252 254 254 252 249 248 246 247 248 251 252 253 251 250 249 250
276 267 265 263 260 257 257 255 256 256 255 254 252 251 251 249 251 250 249 246 247 243 244 244 243 245 245 245 245 245 246 246 249 247 246 248 249 250 251 253 252 249 248 247 246 248 248 250 252 250 249 247 247 247
268 262 263 256 256 255 253 252 251 252 250 248 249 249 250 249 248 246 247 248 244 243 243 241 242 244 246 245 245 246 248 249 248 248 247 248 250 252 255 252 248 249 245 246 246 246 247 247 247 246 247 247 248 251
260 256 256 251 254 256 255 253 251 252 250 250 249 247 247 247 247 249 247 246 244 244 244 244 245 245 245 246 248 248 249 246 246 248 249 249 250 251 251 250 248 249 245 246 246 246 246 246 245 248 249 251 252 251
258 255 249 249 254 254 252 250 250 252 249 251 247 247 246 247 246 250 246 247 248 246 245 243 244 245 246 246 246 245 245 246 248 249 248 248 248 248 250 248 247 249 245 246 246 246 247 247 248 250 250 252 250 253
252 248 254 251 252 250 251 249 248 250 250 247 249 249 250 251 252 252 253 253 251 250 245 243 243 244 245 245 245 245 246 245 246 245 245 246 245 245 245 245 244 256 248 245 247 247 247 249 250 251 252 253 255 256
249 248 254 250 250 250 249 252 252 247 247 250 252 248 247 246 246 250 250 249 245 244 244 244 245 244 245 244 244 244 245 245 247 247 246 246 246 249 244 244 244 244 245 245 252 258 256 255 255 254 254 256 257 257
250 246 251 249 253 251 248 246 245 243 243 245 246 247 247 246 244 241 244 244 245 244 243 244 244 245 245 245 245 245 243 243 245 247 246 246 248 246 243 244 245 245 246 246 249 250 255 253 253 252 255 257 258 260
246 248 249 247 246 244 245 244 244 244 243 244 242 246 246 244 245 242 243 242 242 243 245 246 245 243 244 244 244 244 247 244 243 245 244 243 243 243 244 245 246 245 245 246 246 247 248 249 250 254 256 258 260 261
249 246 248 245 243 245 243 243 242 242 242 244 244 242 245 245 248 246 245 245 245 245 247 246 245 246 245 243 242 243 248 244 244 246 246 245 245 247 246 246 245 245 246 247 247 247 247 250 254 256 258 260 261 262
244 241 238 240 242 243 243 244 243 244 243 242 243 242 243 246 250 250 250 250 251 249 246 245 244 243 244 244 245 244 246 244 246 254 257 256 253 251 246 245 245 246 247 247 247 248 250 255 257 258 260 261 261 262
Wind_Speed
28 28 28 28 29 28 26 25 25 23 23 23 23 26 29 28 28 19 3 14 9 4 4 7 8 6 4 4 5 4 1 2 2 2 4 4 3 5 2 5 4 5 3 4 3 2 8 5 4 1 7 6 4 5
29 30 29 29 28 27 26 25 24 22 21 21 23 25 29 29 28 27 3 10 5 2 5 2 5 7 11 10 5 6 5 4 5 3 1 2 3 2 5 4 1 3 7 4 6 8 7 5 6 7 4 6 5 4
31 30 32 32 30 28 26 26 24 23 22 22 22 24 29 30 29 28 5 8 4 2 4 3 9 11 9 9 11 6 3 6 4 5 4 3 4 3 2 6 4 5 4 7 5 6 10 6 4 2 3 4 5 4
34 33 32 33 31 29 28 26 24 24 22 23 22 23 27 30 29 19 7 7 5 4 3 6 1 2 2 8 10 11 6 3 4 3 3 3 3 5 4 6 8 6 3 5 9 15 11 8 6 2 4 3 5 6
34 35 35 34 33 31 29 27 25 24 23 23 23 21 25 26 29 12 5 5 4 6 4 2 3 1 4 2 5 6 9 5 3 3 3 4 3 2 4 2 12 8 11 5 7 7 5 5 3 3 5 6 7 11
35 34 34 33 33 30 28 27 25 24 23 23 22 21 23 28 30 7 2 2 5 3 3 1 2 2 4 2 3 4 4 3 3 4 3 4 4 3 5 5 10 9 12 14 10 3 4 6 4 5 7 7 8 9
35 32 32 32 31 30 28 27 25 24 23 22 22 17 30 35 11 6 6 6 18 5 3 2 4 0 3 3 2 2 1 3 3 2 4 3 4 6 3 10 19 8 7 5 2 1 3 3 2 6 4 5 5 6
33 34 32 30 28 28 27 27 24 24 23 20 14 33 32 27 16 6 4 23 11 5 2 3 4 1 5 3 2 2 2 1 1 3 2 2 1 4 8 13 4 0 3 2 5 3 2 4 3 4 4 6 7 8
34 33 32 29 27 27 24 24 24 24 16 34 39 32 9 6 3 4 17 17 4 3 5 3 5 4 3 2 2 2 2 2 2 4 3 3 3 8 8 5 5 4 3 1 4 4 2 2 4 4 4 5 6 9
35 34 31 26 25 24 23 22 21 14 41 40 14 7 3 3 27 14 5 3 1 2 1 3 2 3 4 2 1 3 1 4 2 5 2 3 6 6 1 2 5 4 4 2 2 2 3 3 3 4 4 5 6 8
34 31 25 23 21 20 21 21 21 43 32 4 4 4 4 13 5 3 4 3 2 1 3 3 5 5 2 4 3 2 3 1 1 5 4 3 5 3 3 5 3 4 4 1 1 1 3 4 5 6 7 4 5 7
35 25 20 18 18 18 19 25 43 14 5 10 13 8 4 3 3 5 6 3 4 7 3 5 3 3 0 3 4 1 3 2 6 1 2 4 4 1 3 2 1 2 2 1 1 3 3 5 4 5 5 5 4 7
33 19 18 17 17 18 21 44 29 42 31 5 6 5 5 3 5 10 12 4 5 6 5 4 4 4 2 2 2 3 3 5 1 1 6 6 0 0 1 1 2 1 1 0 3 2 2 4 4 3 4 4 5 6
31 18 17 18 19 15 42 41 42 19 8 5 6 8 7 6 7 6 6 6 3 7 10 7 3 4 3 3 3 4 4 3 2 2 7 3 4 4 4 2 1 1 2 3 4 3 3 4 4 5 4 3 3 6
30 16 16 17 15 27 39 40 21 5 4 4 3 5 4 3 4 3 4 5 4 8 7 5 4 3 1 3 2 2 1 4 6 6 3 3 4 3 2 1 0 1 2 3 2 3 4 4 3 5 4 4 4 4
27 20 5 25 37 41 34 19 7 4 4 4 4 4 3 7 3 3 7 6 2 5 3 4 4 4 3 4 3 7 5 6 3 2 2 2 1 2 1 1 1 1 1 3 3 3 3 3 4 5 6 4 4 3
18 7 22 29 28 24 17 7 4 7 4 5 3 3 3 7 5 3 5 3 2 4 3 4 5 7 2 3 3 5 5 3 2 1 1 2 3 3 2 1 1 1 2 2 2 3 4 4 3 2 5 4 5 5
6 10 16 16 9 8 5 7 5 5 6 2 3 2 3 3 7 4 3 2 3 3 3 4 5 2 5 5 4 3 2 2 1 2 2 3 3 3 2 2 2 2 3 2 2 4 2 3 3 3 3 4 5 4
5 9 18 19 10 5 5 6 4 5 4 2 2 3 4 4 3 3 3 3 2 2 6 3 4 4 4 3 3 2 2 3 4 3 2 2 4 4 3 2 2 2 2 2 1 3 3 4 4 3 3 1 2 3
18 19 19 18 8 4 5 3 2 5 3 2 2 3 3 3 2 2 3 3 3 3 3 2 5 5 5 4 4 4 4 3 4 2 2 2 2 3 3 1 1 1 2 3 2 1 3 4 2 2 2 2 2 4
7 6 14 8 5 7 5 3 4 3 3 3 1 2 3 2 3 3 2 2 4 3 3 5 4 2 1 0 1 3 3 4 4 4 5 2 2 2 2 1 1 0 0 1 1 3 2 3 4 3 2 3 3 4
2 9 3 5 5 5 5 4 3 2 4 2 2 1 3 2 1 1 1 3 3 4 3 2 2 2 1 0 1 1 3 4 2 1 2 3 1 0 1 2 0 1 2 3 2 3 3 4 4 3 2 4 3 3
9 4 4 4 6 6 1 2 4 4 4 1 1 4 3 2 2 2 1 3 4 1 1 1 1 1 3 2 2 2 1 4 2 2 1 2 1 1 1 2 2 1 2 3 1 2 3 5 4 3 3 3 2 3
8 6 4 4 5 3 2 4 3 3 3 3 3 2 2 1 1 4 3 4 3 2 2 1 1 3 4 4 1 3 3 3 1 1 0 3 0 3 2 2 2 2 3 2 2 3 3 3 4 3 2 2 3 3
6 4 4 6 3 6 4 3 3 4 2 1 4 1 2 2 2 1 4 5 3 2 2 1 1 1 3 2 2 1 2 3 3 2 3 3 2 1 1 1 2 3 2 1 2 3 3 3 3 3 3 3 4 6
6 3 3 4 2 5 4 4 4 4 4 2 1 2 3 3 3 5 4 3 3 3 3 4 4 1 2 2 2 1 3 2 4 2 3 3 3 2 1 1 1 4 2 3 2 2 4 3 3 6 5 6 5 5
6 3 2 2 4 6 5 3 3 4 4 5 4 2 4 2 5 5 3 3 2 3 3 3 4 4 3 2 2 2 1 2 3 3 1 1 2 3 4 3 4 4 2 3 3 4 4 4 5 5 6 6 5 5
4 4 7 3 4 2 7 3 4 5 5 2 5 3 8 9 5 3 2 1 2 2 1 1 1 2 2 2 2 2 2 2 3 3 2 2 2 3 4 3 3 6 3 4 4 3 4 5 6 6 6 7 9 6
4 3 4 5 3 4 2 4 5 3 2 4 6 4 5 4 3 2 2 1 2 3 2 1 3 2 2 2 1 0 2 3 3 3 2 3 4 4 1 2 3 3 3 3 6 7 7 7 7 6 8 7 8 9
1 1 5 2 4 2 1 1 2 3 1 2 3 2 3 3 3 1 2 2 2 2 3 3 2 3 2 2 2 3 2 3 4 4 4 3 4 3 2 3 3 3 2 2 4 5 6 3 5 4 5 5 5 6
1 3 6 5 3 2 3 2 2 2 3 2 2 4 3 3 4 2 2 3 3 2 2 0 1 1 3 1 2 1 3 2 4 6 4 3 3 3 3 3 3 2 2 2 3 3 3 3 3 5 7 9 10 9
3 4 5 4 1 4 3 3 1 2 3 3 3 3 4 4 2 3 3 4 3 1 4 3 2 3 4 3 2 3 4 2 3 4 6 3 3 4 3 3 2 1 2 3 3 2 3 4 5 6 8 10 11 11
3 4 4 5 4 3 3 4 4 2 4 2 2 2 2 4 4 3 1 1 2 3 3 4 4 3 4 5 4 3 4 4 4 5 5 6 6 5 3 2 2 2 2 3 3 2 4 6 6 9 9 10 11 11
Wind_Direction
272 270 271 270 269 266 265 265 265 264 261 258 252 232 216 205 198 182 173 182 182 197 215 183 170 147 149 167 200 155 280 357 35 134 140 247 164 229 103 232 200 186 143 247 47 50 290 202 345 102 235 293 237 272
273 272 269 268 265 263 263 263 264 262 259 258 256 241 217 207 199 178 165 180 162 184 224 312 223 221 208 192 170 181 192 165 194 106 221 83 314 2 175 265 159 298 188 205 182 226 250 212 211 242 193 233 275 261
279 276 274 273 270 265 263 262 259 256 255 257 257 252 220 206 194 180 133 143 121 161 300 202 230 239 217 207 200 209 196 188 194 174 170 202 217 133 210 245 233 269 198 245 342 265 258 261 271 247 221 254 304 339
280 277 273 271 268 266 264 261 257 254 252 252 255 254 222 206 191 150 159 155 112 110 224 266 255 152 222 170 186 199 183 39 120 114 160 187 182 193 226 243 246 214 293 243 261 278 277 269 141 308 316 294 335 325
282 280 278 274 270 267 262 258 256 253 250 253 255 257 224 190 165 126 95 168 136 153 182 241 328 344 42 54 200 188 180 142 116 177 184 220 226 209 242 321 261 223 241 195 230 230 212 259 35 37 342 337 336 331
284 279 278 276 273 268 263 256 250 246 244 246 252 258 197 160 129 107 104 222 169 110 95 306 272 72 38 42 112 148 160 132 178 160 192 225 234 169 250 228 245 213 223 227 248 176 232 268 286 43 334 334 333 322
291 283 278 273 271 270 264 258 249 243 240 245 245 218 156 139 133 148 180 153 141 102 110 304 312 322 130 102 16 63 88 178 144 201 221 211 215 209 234 253 262 256 250 191 146 72 271 81 299 338 324 322 316 293
292 286 278 272 266 264 262 258 250 241 239 245 187 132 123 107 90 67 82 124 104 97 117 161 259 122 188 151 127 153 127 78 260 207 289 185 308 199 247 247 270 6 87 75 111 51 317 319 323 337 350 334 331 320
296 290 282 271 260 255 253 254 248 244 245 123 116 114 88 58 98 125 141 118 64 122 170 151 166 209 144 168 109 19 129 147 223 206 226 130 227 223 232 230 193 167 163 137 333 312 49 47 327 339 336 330 313 317
300 293 283 265 252 250 244 245 243 170 125 124 111 75 121 142 118 98 35 115 136 221 105 197 151 164 159 135 231 93 168 220 226 233 102 206 250 265 188 110 98 95 78 45 1 317 335 330 328 315 299 294 304 304
299 290 273 256 244 244 233 231 177 130 131 78 103 93 113 107 74 65 131 152 151 236 206 199 180 133 296 124 174 182 192 233 264 259 151 254 267 234 98 86 56 64 76 87 249 287 239 241 281 301 310 291 287 299
306 281 257 239 236 228 222 161 144 127 101 124 109 92 92 80 89 139 167 167 185 211 160 144 166 118 57 94 103 277 176 67 247 185 87 268 249 90 110 128 87 75 55 345 240 268 273 265 266 270 274 286 305 300
312 267 242 230 223 217 171 151 143 122 112 93 73 109 149 143 170 187 175 205 177 160 153 143 123 121 53 52 87 119 152 230 66 141 230 231 340 49 196 155 163 131 14 320 324 292 303 284 291 221 275 286 298 306
309 256 232 227 220 209 155 149 138 131 79 91 138 139 198 181 206 180 172 141 122 122 130 123 110 133 159 106 161 137 231 85 278 262 238 257 217 229 217 183 159 328 342 316 288 280 286 280 293 292 258 267 302 315
333 248 229 225 220 157 141 138 121 57 73 89 116 138 174 108 58 85 99 91 69 120 115 100 65 100 124 130 175 117 40 250 209 231 232 231 212 184 175 171 213 302 318 300 295 307 299 296 313 303 294 289 283 296
359 22 63 121 120 126 125 103 62 70 71 75 64 86 76 85 74 62 99 100 74 119 86 67 114 90 219 152 125 209 165 220 248 229 252 121 198 203 174 161 270 264 257 247 273 254 284 307 290 278 308 307 293 275
52 47 63 81 90 85 66 67 68 57 69 59 34 23 95 98 104 101 109 105 108 86 122 122 121 195 103 107 232 193 204 202 184 180 185 180 190 212 218 224 218 268 277 280 290 312 279 281 297 17 353 304 309 288
73 84 77 59 41 65 45 31 67 64 66 70 91 348 38 38 107 76 82 73 91 102 98 179 125 113 188 181 249 221 174 203 154 181 179 191 196 199 199 227 237 254 269 283 258 273 278 337 338 283 284 287 312 323
87 77 65 48 57 72 51 36 36 89 60 67 41 32 48 72 33 37 65 54 91 126 103 51 104 185 222 209 176 238 231 181 184 199 189 206 180 177 205 227 248 237 277 269 263 267 259 246 242 253 261 301 288 296
88 74 68 57 51 70 65 38 26 86 90 98 55 54 55 65 64 38 39 28 69 76 75 168 207 202 183 207 189 173 176 160 126 74 290 247 211 189 204 231 262 293 295 318 304 274 327 323 319 260 269 262 291 292
47 23 34 51 49 54 69 17 58 59 97 72 71 54 76 43 45 47 46 330 59 186 229 211 213 235 323 339 160 127 120 133 180 168 187 192 225 184 183 196 207 295 246 303 311 307 338 257 269 287 295 285 267 252
92 64 69 44 75 61 71 16 66 61 65 93 72 46 84 82 63 318 223 67 228 233 192 193 222 148 69 144 252 139 168 119 112 106 61 93 96 201 229 198 130 274 285 250 205 256 276 272 283 286 291 283 285 279
102 66 60 59 80 50 341 24 76 5 99 164 36 61 11 35 258 9 29 222 248 274 224 175 203 214 132 283 60 22 112 132 160 200 210 187 196 157 152 225 199 224 302 294 210 269 270 278 291 291 292 309 324 307
44 57 63 65 71 109 30 34 44 67 56 48 67 62 330 216 338 54 250 260 267 313 17 310 79 41 9 21 358 244 241 150 119 4 152 110 52 277 205 236 219 223 211 246 286 286 286 300 311 325 326 314 307 297
93 22 77 63 35 91 78 44 19 59 96 331 90 348 286 56 65 307 233 272 306 292 265 301 62 114 151 254 297 280 293 132 149 191 270 167 162 17 292 271 259 238 165 65 314 297 308 326 336 329 322 311 302 308
85 5 90 156 135 107 161 118 161 152 124 102 184 264 39 84 64 248 240 236 236 214 209 187 175 128 302 203 167 222 246 169 109 111 273 172 155 150 192 226 321 299 214 180 181 290 303 306 317 329 316 313 297 291
122 172 314 267 106 108 85 53 79 103 122 155 186 107 82 111 250 252 275 230 204 230 206 181 156 161 193 229 296 285 260 130 154 194 220 174 191 182 162 184 223 241 197 218 214 211 250 291 299 296 296 299 259 266
130 154 132 203 86 25 118 94 129 172 186 206 98 164 169 188 226 220 201 176 153 135 92 298 201 161 152 208 203 127 352 7 8 346 329 297 247 227 220 234 241 262 241 228 232 237 231 251 267 277 280 283 293 284
64 327 92 60 74 61 107 149 184 213 183 140 144 190 230 231 218 165 215 176 102 89 77 353 309 20 17 4 13 164 135 111 85 46 6 291 335 309 289 259 275 279 267 277 282 265 249 248 246 251 261 271 286 290
14 0 98 84 93 109 278 157 190 250 217 162 137 49 13 326 257 197 93 74 110 200 210 188 187 127 198 157 290 319 263 179 175 155 173 231 237 261 304 287 283 280 284 282 292 306 313 343 323 338 318 297 291 297
318 52 72 46 86 265 247 277 328 46 39 44 344 112 203 255 311 264 164 185 157 113 90 356 296 223 148 177 155 80 307 264 203 219 221 239 258 266 269 263 253 258 277 299 314 308 300 312 309 310 309 310 309 309
30 67 117 102 334 295 15 62 68 76 345 50 327 22 3 34 300 277 230 115 93 166 231 176 167 261 219 212 219 224 212 242 233 222 225 235 257 257 254 259 263 255 290 303 302 294 285 292 306 306 304 308 312 313
55 57 65 87 46 1 300 81 25 26 21 31 312 203 207 168 235 249 297 139 162 183 204 214 216 216 205 202 210 232 234 230 250 262 258 242 230 241 235 239 246 248 278 297 295 282 294 306 303 308 313 311 310 314